Regional Weather Roundup
Issued by NWS

Home | Current Version | Previous Version | Text Only | Print | Product List | Glossary On
Versions: 1 2 3 4 5 6 7 8 9 10 11 12 13 14 15 16 17 18 19 20 21 22 23 24 25 26 27 28 29 30 31 32 33 34 35 36 37 38 39 40 41 42 43 44 45 46 47 48 49 50
000
ASUS43 KDTX 170110
RWRMI
MICHIGAN HOURLY REGIONAL WEATHER ROUNDUP
NATIONAL WEATHER SERVICE DETROIT/PONTIAC MI
800 PM EST MON JAN 16 2017

NOTE: "FAIR" INDICATES FEW OR NO CLOUDS BELOW 12,000 FEET WITH NO
SIGNIFICANT WEATHER AND/OR OBSTRUCTION TO VISIBILITY.

MIZ047>049-052>055-059>063-066>070-074>076-081>083-170200-
SOUTHEAST LOWER MICHIGAN

CITY           SKY/WX    TMP DP  RH WIND       PRES   REMARKS
ADRIAN         MIX PCPN  32  31  96 E7        30.16F FOG     WCI  26
ALMA           LGT SNOW  32  31  95 E8        30.16F WCI  25
ANN ARBOR      MIX PCPN  32  32 100 E7        30.18F FOG     WCI  26
BAD AXE        MIX PCPN  32  29  90 S5        30.20F WCI  27
CARO           LGT SNOW  32  31  95 SE3       30.19F
DETROIT        LGT RAIN  33  31  92 E5        30.20F FOG     WCI  29
FLINT          MIX PCPN  32  29  88 E6        30.18F WCI  26
GROSSE ILE     MIX PCPN  32  31  95 NE5       30.19F WCI  28
HILLSDALE      MIX PCPN  32  32 100 E9        30.11F WCI  24
HOWELL         MIX PCPN  32  29  89 E8        30.16F WCI  25

CITY           SKY/WX    TMP DP  RH WIND       PRES   REMARKS
JACKSON        MIX PCPN  32  30  92 E10       30.13F FOG     WCI  24
LAMBERTVILLE   LGT RAIN  35  32  88 CALM      30.17F
LANSING        LGT RAIN  32  29  88 SE7       30.15F FOG     WCI  26
LAPEER         MIX PCPN  32  30  91 SE3       30.20F
MASON          MIX PCPN  32  31  95 E8        30.15S WCI  25
MONROE         MIX PCPN  33  32  95 E3        30.18F
MT. CLEMENS    LGT RAIN  32  32  99 NE7       30.20F WCI  26
PONTIAC        FRZ RAIN  31  27  85 E6        30.17F FOG     WCI  25
PORT HOPE        N/A     32  22  66 CALM      30.20S
PORT HURON     MIX PCPN  32  30  93 CALM      30.23F
TRI CITIES     MIX PCPN  32  30  92 SE6       30.19F FOG     WCI  26
MIDLAND        MIX PCPN  32  29  90 SE3       30.18F
TROY           LGT RAIN  33  31  93 E9        30.22F WCI  25
SAGINAW HB     MIX PCPN  32  30  93 SE3       30.19F
$$
MIZ043>046-050>051-056>058-064>065-071>073-077>080-170200-
SOUTHWEST LOWER MICHIGAN

CITY           SKY/WX    TMP DP  RH WIND       PRES   REMARKS
BATTLE CREEK   RAIN      34  34 100 SE7       30.12S FOG     WCI  28
BENTON HARBOR  MIX PCPN  37  35  92 SE12      30.06F FOG     WCI  29
BIG RAPIDS     LGT SNOW  32  30  92 E6        30.13F WCI  26
COLDWATER      LGT RAIN  34  34 100 SE8       30.11F WCI  27
FREMONT        MIX PCPN  33  33 100 E5        30.11F WCI  28
HOLLAND        LGT RAIN  34  32  92 E13       30.08F FOG     WCI  25
GRAND RAPIDS   FRZ RAIN  33  30  88 E14       30.11F FOG     WCI  23
IONIA          LGT SNOW  32  31  96 E7        30.14S WCI  26
KALAMAZOO      LGT RAIN  36  33  89 SE7       30.10F FOG     WCI  30
LUDINGTON      MIX PCPN  32  32  99 E9        30.11F WCI  24
MARSHALL       LGT RAIN  33  32  98 SE7       30.12S WCI  27
MOUNT PLEASANT MIX PCPN  32  29  91 E5        30.16F WCI  27
MUSKEGON       LGT RAIN  34  32  92 E13       30.09F FOG     WCI  25
SOUTH HAVEN    CLOUDY    36  35  98 SE8       30.06F FOG     WCI  29
$$
MIZ016>042-170200-
NORTHERN LOWER MICHIGAN

CITY           SKY/WX    TMP DP  RH WIND       PRES   REMARKS
ALPENA         CLOUDY    25  18  74 CALM      30.18F
BEAVER ISLAND  CLOUDY    27  25  93 CALM      30.15F
BELLAIRE       CLOUDY    26  24  94 CALM      30.17S
CADILLAC       MIX PCPN  31  24  75 E7        30.12F WCI  25
CHARLEVOIX     CLOUDY    30  25  83 SE5       30.18F WCI  25
FRANKFORT      CLOUDY    33  30  90 CALM      30.13F
GAYLORD        CLOUDY    30  21  69 CALM      30.14S
GRAYLING       CLOUDY    25  21  85 CALM      30.15F
HARBOR SPRINGS CLOUDY    28  25  87 NE3       30.16S
HOUGHTON LAKE  CLOUDY    32  18  56 SE3       30.16F
MANISTEE       MIX PCPN  32  28  85 E9        30.13F WCI  24
OSCODA         CLOUDY    28  24  83 CALM      30.20S
PELLSTON       PTCLDY    24  19  81 CALM      30.16F
ROGERS CITY    CLOUDY    26  21  80 CALM      30.18S
TRAVERSE CITY  CLOUDY    33  24  69 CALM      30.14F
$$
MIZ007>008-015-170200-
EASTERN UPPER MICHIGAN

CITY           SKY/WX    TMP DP  RH WIND       PRES   REMARKS
KINROSS        CLOUDY    25  24  96 S5        30.16R WCI  19
MACKINAC ISLAN CLOUDY    30  24  77 S6        30.16F WCI  24
NEWBERRY       CLOUDY    18  17  95 CALM      30.14S
S. S. MARIE    CLOUDY    27  21  78 CALM      30.16R
$$
MIZ004>006-011>014-085-170200-
CENTRAL UPPER MICHIGAN

CITY           SKY/WX    TMP DP  RH WIND       PRES   REMARKS
MANISTIQUE     CLOUDY    21  20  98 CALM      30.13F
ESCANABA       PTCLDY    23  20  88 S5        30.13F WCI  17
SAWYER-GWINN   CLEAR     25  21  86 S5        30.11S WCI  19
$$
MIZ001>003-009>011-084-170200-
WESTERN UPPER MICHIGAN

CITY           SKY/WX    TMP DP  RH WIND       PRES   REMARKS
IRON MOUNTAIN  CLOUDY    22  16  78 S3        30.08F
HOUGHTON       CLOUDY    27  19  72 E5        30.08S WCI  22
COPPER HARBOR    N/A     26  25  96 W3        30.11F
IRONWOOD       CLOUDY    28  23  81 CALM      30.07F
$$

ABBREVIATIONS USED IN REMARKS
   TC - TEMPERATURE IN CELSIUS
  WCI - WIND CHILL INDEX
   HX - HEAT INDEX
  VSB - VISIBILITY





USA.gov is the U.S. government's official web portal to all federal, state and local government web resources and services.